Regional Weather Roundup
Issued by NWS Sterling, VA

Home | Current Version | Previous Version | Graphics & Text | Print | Product List | Glossary On
Versions: 1 2 3 4 5 6 7 8 9 10 11 12 13 14 15 16 17 18 19 20 21 22 23 24 25 26 27 28 29 30 31 32 33 34 35 36 37 38 39 40 41 42 43 44 45 46 47 48 49 50
000
ASUS41 KLWX 281910
RWRLWX

REGIONAL WEATHER ROUNDUP
NATIONAL WEATHER SERVICE BALTIMORE MD/WASHINGTON DC
200 PM EST SUN DEC 28 2014

Note: "FAIR" indicates few or no clouds below 12,000 feet
with no significant weather and/or obstructions to visibility.
 TC=TEMPERATURE CELSIUS

 * =Non NWS site. Station does not report precipitation (e.g. rain,
    snow, etc.), thunder, or fog.

DCZ001-MDZ009-015-VAZ040>042-051-053>054-282000-
WASHINGTON METRO

CITY           SKY/WX    TMP DP  RH WIND       PRES   REMARKS
WASHINGTON NAT CLOUDY    54  41  61 S5        29.95S
DULLES         CLOUDY    54  46  74 CALM      29.94F
ANDREWS AFB    CLOUDY    56  41  56 W2        29.94S
FT BELVOIR     CLOUDY    57  43  60 VRB1      29.95R
QUANTICO       CLOUDY    50  40  68 SW5       29.96S
COLLEGE PARK*  CLOUDY    59  41  51 CALM      29.94S
LEESBURG*      CLOUDY    57  46  67 CALM      29.95F
MANASSAS*      PTSUNNY   55  45  67 CALM      29.95S
GAITHERSBURG*  CLOUDY    55  41  58 W6        29.98R

$$

MDZ006>007-011-014-282000-
BALTIMORE METRO

CITY           SKY/WX    TMP DP  RH WIND       PRES   REMARKS
BWI AIRPORT    CLOUDY    57  42  57 W7        29.94R
MD SCIENCE CTR   N/A     58  41  53 MISG      29.94S
MARTIN STATE   CLOUDY    54  46  76 SE5       29.95
ANNAPOLIS      CLOUDY    46  41  82 SE6       29.94R
FORT MEADE*    CLOUDY    55  41  58 NW6       29.96F

$$

MDZ012-015-019>023-282000-
MARYLAND EASTERN SHORE

CITY           SKY/WX    TMP DP  RH WIND       PRES   REMARKS
OCEAN CITY     CLOUDY    58  42  55 W6        29.94F
SALISBURY      CLOUDY    61  40  45 W7        29.95S
BAY BRIDGE AP*   N/A     52  41  66 CALM      29.95R
CAMBRIDGE*     CLOUDY    57  41  54 W3        29.95R
EASTON*        PTSUNNY   57  43  58 W6        29.99R

$$

MDZ017>025-282000-
SOUTHERN MARYLAND

CITY           SKY/WX    TMP DP  RH WIND       PRES   REMARKS
PATUXENT RIVER LGT RAIN  57  40  52 CALM      29.95R
ST INIGOES     CLOUDY    59  39  47 CALM      29.95R
LEONARDTOWN*   CLOUDY    55  39  54 W5        29.96F

$$

MDZ003>005-282000-
NORTH CENTRAL MARYLAND

CITY           SKY/WX    TMP DP  RH WIND       PRES   REMARKS
FREDERICK*     SUNNY     57  41  54 NW8       29.97S
HAGERSTOWN APT CLOUDY    52  42  69 NW13      29.94R
WESTMINSTER*   CLOUDY    54  43  66 W7        29.93F

$$

MDZ501>502-282000-
WESTERN MARYLAND

CITY           SKY/WX    TMP DP  RH WIND       PRES   REMARKS
OAKLAND*       FOG       36 N/A N/A W7        29.95S VSB 1/4
CUMBERLAND*    CLOUDY    50  39  66 NW7       30.02R

$$

VAZ025>031-282000-
SHENANDOAH VALLEY

CITY           SKY/WX    TMP DP  RH WIND       PRES   REMARKS
WINCHESTER*    CLOUDY    57  36  44 CALM      29.94R
FRONT ROYAL*   MOCLDY    55  39  54 CALM      29.93S
LURAY*         LGT RAIN  54  45  71 N3        29.93S
NEW MARKET*    CLOUDY    52  45  77 CALM      29.93S
STAUNTON*      LGT RAIN  55  47  74 S3        29.95S
WAYNESBORO*    CLOUDY    55  45  68 SW3       29.95R

$$

WVZ021-048>050-054>055-282000-
EASTERN WEST VIRGINIA PANHANDLE

CITY           SKY/WX    TMP DP  RH WIND       PRES   REMARKS
MARTINSBURG    CLOUDY    57  40  52 W8        29.94S
PETERSBURG*    CLOUDY    56  41  58 W8        29.97R

$$

VAZ036>039-050-282000-
CENTRAL FOOTHILLS

CITY           SKY/WX    TMP DP  RH WIND       PRES   REMARKS
CHARLOTTESVILL CLOUDY    56  42  59 S7        29.93S
CULPEPER*      DRIZZLE   55  45  67 CALM      29.94F
ORANGE*        CLOUDY    55  45  67 CALM      29.96S
GORDONSVILLE*  CLOUDY    55  42  60 CALM      29.93F
WARRENTON*     PTSUNNY   56  50  82 CALM      29.93F

$$

VAZ055>057-282000-
NORTH AND CENTRAL PIEDMONT

CITY           SKY/WX    TMP DP  RH WIND       PRES   REMARKS
FREDERICKSBRG* DRIZZLE   57  45  64 CALM      29.94F
STAFFORD*      LGT RAIN  56  45  67 CALM      29.98F

$$

NCZ024-NYZ072-PAZ021-071-VAZ022-071-282000-
OTHER REGIONAL OBSERVATIONS

CITY           SKY/WX    TMP DP  RH WIND       PRES   REMARKS
NEW YORK CITY  CLOUDY    52  41  66 VRB3      29.91S
PHILADELPHIA   CLOUDY    55  41  59 SW8       29.93S
PITTSBURGH     CLOUDY    37  33  85 NW7       30.02F
ROANOKE        LGT RAIN  55  47  74 SW9       30.00R
RICHMOND       CLOUDY    63  46  54 SW10      29.95S
RALEIGH        CLOUDY    60  53  77 W9        30.01F

$$

ANZ530>537-282000-
MARINE OBSERVATIONS

STATION/POSITION TIME  TEMP    WIND        PRES
                       AIR SEA DIR/SP/G
                 (UTC) (F)     (DEG/KT/KT) (MB)
THOMAS PT LIGHT  1900   49 43  170/  7/  7 1015.2R
BALT KEY BRIDGE  1900   56     280/  7/  9 1013.7R
COVE POINT       1900   57     270/  4/  6 1013.9F
LEWISETTA        1900   55 45   10/  4/  5 1013.8S
SOLOMONS ISLAND  1900      44                N/A
PINEY POINT      1900           10/  5/  5   N/A

$$




USA.gov is the U.S. government's official web portal to all federal, state and local government web resources and services.